GW0959 Weather Reports


time (UTC)temp
C
wind
direction
speed
KPH
gust
KPH
rain 1hr
cm
rain 24hr
cm
rain mn
cm
humidity
%
barometer
mb
20260506104057 10 160 0.0 0.0 0.00 0.03 0.00 95 1019.9
20260506103555 10 160 0.0 0.0 0.00 0.03 0.00 95 1019.8
20260506103056 10 160 0.0 0.0 0.00 0.03 0.00 95 1019.8
20260506102044 10 159 0.0 0.0 0.00 0.03 0.00 95 1019.7
20260506101535 10 159 0.0 0.0 0.00 0.03 0.00 95 1019.7
20260506101031 10 160 0.0 0.0 0.00 0.03 0.00 95 1019.7
20260506100525 10 160 0.0 0.0 0.00 0.03 0.00 95 1019.7
20260506100241 10 160 0.0 0.0 0.00 0.03 0.00 95 1019.7
20260506095512 10 160 0.0 0.0 0.00 0.03 0.00 95 1019.7
20260506095006 10 160 0.0 0.0 0.00 0.03 0.00 95 1019.7
20260506094500 10 160 0.0 0.0 0.00 0.03 0.00 95 1019.7
20260506093954 10 159 0.0 0.0 0.00 0.03 0.00 95 1019.6
20260506093448 10 160 0.0 0.0 0.00 0.03 0.00 95 1019.6
20260506092941 10 159 0.0 0.0 0.00 0.03 0.00 95 1019.6
20260506092703 10 160 0.0 0.0 0.00 0.03 0.00 95 1019.6
20260506091929 10 160 0.0 0.0 0.00 0.03 0.00 95 1019.6
20260506091423 10 159 0.0 0.0 0.00 0.03 0.00 95 1019.6
20260506090919 10 160 0.0 0.0 0.00 0.03 0.00 95 1019.7
20260506090413 10 160 0.0 0.0 0.00 0.03 0.00 95 1019.7
20260506085907 10 160 0.0 0.0 0.00 0.03 0.00 95 1019.7
20260506085400 10 160 0.0 0.0 0.00 0.03 0.00 95 1019.7
20260506085113 10 159 0.0 0.0 0.00 0.03 0.00 95 1019.7
20260506084348 10 159 0.0 0.0 0.00 0.03 0.00 95 1019.6
20260506083844 10 160 0.0 0.0 0.00 0.03 0.00 95 1019.7
20260506083336 10 160 0.0 0.0 0.00 0.05 0.00 95 1019.7
20260506082830 10 159 0.0 0.0 0.00 0.05 0.00 95 1019.7
20260506082324 10 160 0.0 0.0 0.00 0.08 0.00 95 1019.7
20260506082305 10 159 0.0 0.0 0.00 0.08 0.00 95 1019.7
20260506081313 10 160 0.0 0.0 0.00 0.08 0.00 95 1019.7
20260506080806 10 160 0.0 0.0 0.00 0.08 0.00 95 1019.7
20260506080259 10 159 0.0 0.0 0.00 0.08 0.00 95 1019.6
20260506073224 10 159 0.0 0.0 0.00 0.08 0.00 95 1019.5
20260506072718 10 160 0.0 0.0 0.00 0.08 0.00 95 1019.5
20260506072212 10 160 0.0 0.0 0.00 0.08 0.00 95 1019.4
20260506071708 10 159 0.0 0.0 0.00 0.08 0.00 94 1019.4
20260506071202 10 159 0.0 0.0 0.00 0.08 0.00 94 1019.4
20260506070655 10 159 0.0 0.0 0.00 0.08 0.00 94 1019.3
20260506070149 10 159 0.0 0.0 0.00 0.08 0.00 94 1019.3
20260506062100 10 158 0.0 0.0 0.00 0.10 0.08 94 1019.0
20260506061554 10 158 0.0 0.0 0.00 0.10 0.08 94 1018.9
20260506061048 10 158 0.0 0.0 0.00 0.10 0.08 94 1018.8
20260506060542 10 158 0.0 0.0 0.00 0.13 0.08 94 1018.8
20260506060259 10 158 0.0 0.0 0.00 0.13 0.08 94 1018.7
20260506050936 10 158 0.0 0.0 0.00 0.20 0.08 94 1018.3
20260506050430 10 158 0.0 0.0 0.00 0.23 0.08 94 1018.2
20260506044915 10 158 0.0 0.0 0.00 0.33 0.08 94 1018.2
20260506044406 10 159 0.0 0.0 0.00 0.33 0.08 94 1018.2
20260506043900 10 160 0.0 0.0 0.00 0.36 0.08 94 1018.2
20260506043612 10 159 0.0 0.0 0.00 0.36 0.08 94 1018.2
20260506042848 10 159 0.0 0.0 0.00 0.36 0.08 94 1018.0
20260506042342 10 160 0.0 0.0 0.00 0.36 0.08 94 1018.1
20260506041836 10 160 0.0 0.0 0.00 0.36 0.08 94 1018.0
20260506041330 10 159 0.0 0.0 0.00 0.36 0.08 94 1018.0
20260506040826 10 160 0.0 0.0 0.00 0.36 0.08 93 1017.9
20260506040539 10 159 0.0 0.0 0.00 0.36 0.08 93 1017.9
20260506035812 10 160 0.0 0.0 0.00 0.38 0.08 93 1017.6
20260506035533 10 159 0.0 0.0 0.00 0.38 0.08 93 1017.5
20260506034800 10 160 0.0 0.0 0.00 0.43 0.08 93 1017.5
20260506034256 10 160 0.0 0.0 0.00 0.48 0.08 93 1017.4
20260506033749 10 159 0.0 0.0 0.00 0.51 0.08 93 1017.5
20260506033242 10 159 0.0 0.0 0.00 0.56 0.08 93 1017.4
20260506032736 10 160 0.0 0.0 0.00 0.58 0.08 93 1017.5
20260506032230 10 159 0.0 0.0 0.00 0.58 0.08 93 1017.4
20260506031724 10 150 0.0 0.0 0.00 0.61 0.08 93 1017.3
20260506031218 10 149 0.0 0.0 0.00 0.64 0.08 92 1017.2
20260506030937 11 149 0.0 0.0 0.00 0.69 0.08 92 1017.1
20260506030206 11 149 0.0 0.0 0.00 0.71 0.08 92 1017.1
20260506025701 11 149 0.0 0.0 0.00 0.76 0.08 92 1017.0
20260506025155 11 149 0.0 0.0 0.00 0.79 0.08 92 1016.9
20260506024649 11 149 0.0 0.0 0.00 0.84 0.08 92 1016.8
20260506024144 11 149 0.0 0.0 0.00 0.91 0.08 92 1016.9
20260506023637 11 149 0.0 1.6 0.00 0.99 0.08 91 1017.0
20260506023130 11 149 0.0 1.6 0.00 1.02 0.08 91 1017.0
20260506022625 11 159 0.0 1.6 0.00 1.09 0.08 91 1016.9
20260506022119 11 160 0.0 3.2 0.00 1.14 0.08 91 1016.8
20260506021612 11 136 0.0 3.2 0.00 1.19 0.08 91 1016.7
20260506021107 11 229 0.0 1.6 0.00 1.27 0.08 91 1016.7
20260506021048 11 229 1.6 6.4 0.00 1.30 0.08 91 1016.8
20260506020320 11 221 1.6 6.4 0.00 1.32 0.08 91 1016.6
20260506015550 11 158 0.0 4.8 0.00 1.35 0.08 91 1016.5
20260506015043 11 135 0.0 1.6 0.00 1.35 0.08 91 1016.5
20260506014538 11 144 0.0 0.0 0.00 1.35 0.08 91 1016.7
20260506014257 11 143 0.0 0.0 0.00 1.35 0.08 92 1016.8
20260506013752 11 142 0.0 0.0 0.00 1.37 0.08 91 1016.8
20260506013239 11 142 0.0 1.6 0.00 1.40 0.08 91 1016.8
20260506012511 11 142 0.0 1.6 0.00 1.45 0.08 92 1016.9
20260506012006 11 142 0.0 1.6 0.00 1.47 0.08 92 1016.9
20260506011500 11 160 0.0 1.6 0.00 1.52 0.08 92 1016.7
20260506010954 11 160 0.0 0.0 0.00 1.60 0.08 92 1016.8
20260506010449 11 160 0.0 1.6 0.00 1.65 0.08 92 1016.8
20260506005941 11 160 0.0 1.6 0.00 1.70 0.08 92 1016.6
20260506005436 11 160 0.0 1.6 0.00 1.73 0.08 92 1016.6
20260506004930 11 160 0.0 1.6 0.00 1.73 0.08 92 1016.5
20260506004425 11 160 0.0 1.6 0.00 1.73 0.08 92 1016.6
20260506003920 11 153 0.0 1.6 0.00 1.75 0.08 93 1016.5
20260506003414 11 203 0.0 1.6 0.00 1.75 0.08 93 1016.4
20260506002906 11 205 0.0 0.0 0.00 1.78 0.08 93 1016.4
20260506002359 10 205 0.0 0.0 0.00 1.80 0.08 93 1016.2
20260506001854 10 205 0.0 1.6 0.00 1.83 0.08 93 1016.2
20260506001349 10 205 0.0 0.0 0.00 1.85 0.08 93 1016.2
20260506000841 10 205 0.0 3.2 0.00 1.85 0.08 93 1016.4
20260506000335 10 205 0.0 1.6 0.00 1.85 0.08 93 1016.2
20260505235830 10 158 0.0 1.6 0.00 1.85 0.08 92 1016.2
20260505235323 10 158 0.0 1.6 0.00 1.88 0.08 92 1016.2
20260505234818 10 158 0.0 1.6 0.00 1.91 0.08 92 1016.2
20260505234313 10 158 0.0 1.6 0.00 1.93 0.08 92 1016.2
20260505233807 10 158 0.0 0.0 0.00 1.96 0.08 92 1016.2
20260505233300 10 158 0.0 0.0 0.00 2.01 0.08 92 1016.1
20260505232753 10 158 0.0 1.6 0.00 2.03 0.08 92 1016.2
20260505232508 10 158 0.0 1.6 0.00 2.03 0.08 91 1016.2
20260505231744 10 158 0.0 1.6 0.03 2.08 0.08 92 1016.2
20260505231236 10 158 0.0 1.6 0.03 2.13 0.08 91 1016.2
20260505230730 10 138 0.0 1.6 0.03 2.21 0.08 91 1016.2
20260505230223 10 149 0.0 1.6 0.03 2.24 0.08 92 1016.2
20260505225946 10 149 0.0 1.6 0.03 2.29 0.08 92 1016.2
20260505225211 10 143 0.0 1.6 0.03 2.34 0.08 92 1016.2
20260505224706 10 159 0.0 3.2 0.03 2.36 0.08 93 1016.2
20260505224201 10 256 0.0 3.2 0.03 2.39 0.08 93 1016.2
20260505223655 10 149 0.0 1.6 0.03 2.44 0.08 93 1016.2
20260505223634 10 203 0.0 1.6 0.03 2.46 0.08 93 1016.2
20260505222641 10 225 0.0 1.6 0.03 2.49 0.08 93 1016.4
20260505222355 10 242 0.0 3.2 0.03 2.51 0.08 93 1016.4
20260505221857 10 207 0.0 3.2 0.00 2.54 0.05 93 1016.4
20260505221136 10 217 0.0 3.2 0.00 2.54 0.05 93 1016.4
20260505220639 10 208 0.0 3.2 0.00 2.57 0.05 93 1016.4
20260505220137 10 262 0.0 3.2 0.00 2.57 0.05 93 1016.4
20260505215637 10 217 0.0 3.2 0.00 2.57 0.05 93 1016.4
20260505215355 10 285 0.0 3.2 0.00 2.57 0.05 92 1016.5
20260505214634 10 198 0.0 1.6 0.00 2.59 0.05 92 1016.5
20260505214401 10 181 0.0 3.2 0.00 2.59 0.05 92 1016.5
20260505213632 10 201 0.0 3.2 0.00 2.59 0.05 91 1016.5
20260505213353 10 285 0.0 3.2 0.00 2.62 0.05 91 1016.4
20260505212634 10 204 0.0 4.8 0.00 2.67 0.05 91 1016.5
20260505212132 10 198 0.0 4.8 0.00 2.69 0.05 91 1016.5
20260505211632 11 204 0.0 4.8 0.00 2.72 0.05 91 1016.5
20260505211132 11 195 0.0 4.8 0.00 2.74 0.05 90 1016.5
20260505210852 11 85 1.6 6.4 0.00 2.74 0.05 90 1016.4
20260505210135 11 201 1.6 6.4 0.00 2.74 0.05 89 1016.2
20260505205635 11 240 1.6 6.4 0.00 2.77 0.05 89 1016.2
20260505205129 11 204 0.0 4.8 0.00 2.77 0.05 89 1016.2
20260505204623 11 212 0.0 3.2 0.00 2.77 0.05 89 1016.2
20260505204116 11 187 0.0 3.2 0.00 2.77 0.05 89 1016.2
20260505203610 11 160 0.0 1.6 0.00 2.77 0.05 90 1016.2
20260505203325 11 123 0.0 1.6 0.00 2.77 0.05 89 1016.1
20260505202559 11 217 0.0 1.6 0.00 2.79 0.05 90 1016.1
20260505202054 11 219 0.0 1.6 0.00 2.82 0.05 90 1016.1
20260505201548 11 215 0.0 3.2 0.00 2.82 0.05 90 1016.1
20260505201040 10 218 0.0 3.2 0.00 2.84 0.05 90 1016.2
20260505200534 10 277 0.0 3.2 0.00 2.84 0.05 91 1016.2
20260505200029 10 191 0.0 6.4 0.00 2.84 0.05 91 1016.1
20260505195523 10 267 1.6 6.4 0.00 2.87 0.05 91 1016.1
20260505195016 10 311 0.0 4.8 0.00 2.90 0.05 92 1016.2
20260505194510 10 215 0.0 3.2 0.00 2.92 0.05 93 1016.2
20260505194004 10 208 0.0 3.2 0.00 2.95 0.05 93 1016.4
20260505193721 10 134 0.0 3.2 0.00 2.97 0.05 93 1016.2
20260505192952 10 135 0.0 3.2 0.00 2.97 0.05 94 1016.2
20260505192711 10 193 0.0 1.6 0.00 3.00 0.05 94 1016.2
20260505192206 10 159 0.0 1.6 0.00 3.00 0.05 95 1016.2
20260505191434 10 148 0.0 6.4 0.00 3.00 0.05 95 1016.2
20260505191147 10 187 0.0 6.4 0.00 3.00 0.05 95 1016.1
20260505190424 10 201 0.0 3.2 0.00 3.00 0.05 95 1016.1
20260505185916 10 145 0.0 1.6 0.00 3.00 0.05 95 1016.0
20260505185411 10 200 0.0 3.2 0.00 3.00 0.05 95 1016.0
20260505184905 10 219 0.0 3.2 0.00 3.00 0.05 95 1016.1
20260505184359 10 212 1.6 3.2 0.00 3.00 0.05 95 1016.0
20260505183852 10 129 0.0 4.8 0.00 3.00 0.05 95 1015.9
20260505183346 10 214 0.0 4.8 0.00 3.00 0.05 95 1016.0
20260505182841 10 198 0.0 4.8 0.00 3.00 0.05 95 1015.9
20260505182600 10 201 1.6 6.4 0.00 3.00 0.05 95 1015.9
20260505182055 10 150 1.6 6.4 0.00 3.00 0.05 95 1015.9
20260505181541 10 141 0.0 4.8 0.00 3.00 0.05 95 1015.9
20260505180817 10 176 1.6 4.8 0.00 3.00 0.05 95 1015.8
20260505180310 10 128 1.6 4.8 0.00 3.00 0.05 95 1015.8
20260505175805 10 145 1.6 4.8 0.00 3.00 0.05 95 1015.8
20260505175258 10 156 0.0 6.4 0.00 3.00 0.05 95 1015.8
20260505174752 10 217 0.0 6.4 0.00 3.00 0.05 95 1015.7
20260505174247 10 211 0.0 4.8 0.00 3.00 0.05 95 1015.7
20260505173742 10 174 0.0 3.2 0.00 3.00 0.05 95 1015.6
20260505173235 10 150 1.6 4.8 0.00 3.00 0.05 95 1015.6
20260505172729 10 208 0.0 4.8 0.00 3.00 0.05 95 1015.5
20260505172222 10 203 0.0 4.8 0.00 3.00 0.05 96 1015.5
20260505171718 10 224 1.6 4.8 0.00 3.00 0.05 95 1015.4
20260505171211 10 193 0.0 4.8 0.00 3.02 0.05 96 1015.5
20260505170705 10 200 0.0 3.2 0.00 3.02 0.05 96 1015.5
20260505170159 10 292 0.0 4.8 0.00 3.02 0.05 96 1015.5
20260505165653 10 200 0.0 4.8 0.00 3.02 0.05 96 1015.5
20260505165628 10 158 0.0 1.6 0.00 3.02 0.05 96 1015.5
20260505164641 10 206 0.0 3.2 0.00 3.02 0.05 96 1015.5
20260505164624 9 200 0.0 3.2 0.00 3.02 0.05 96 1015.5
20260505163629 9 215 0.0 3.2 0.00 3.02 0.05 96 1015.4
20260505163123 9 217 0.0 3.2 0.00 3.05 0.05 96 1015.4
20260505162837 9 214 0.0 1.6 0.00 3.07 0.05 96 1015.5
20260505162111 9 197 0.0 1.6 0.00 3.10 0.05 96 1015.4
20260505161606 9 173 0.0 3.2 0.00 3.12 0.05 96 1015.4
20260505161100 9 210 0.0 3.2 0.00 3.15 0.05 96 1015.4
20260505160813 9 145 0.0 3.2 0.00 3.20 0.05 96 1015.4
20260505153012 8 145 0.0 1.6 0.00 3.20 0.05 96 1015.3
20260505152504 8 145 0.0 0.0 0.00 3.20 0.05 96 1015.3
20260505151959 8 145 0.0 1.6 0.00 3.20 0.05 96 1015.3
20260505151452 8 127 0.0 1.6 0.00 3.20 0.05 96 1015.2
20260505150947 8 219 0.0 1.6 0.00 3.20 0.05 96 1015.2
20260505150443 8 222 0.0 1.6 0.00 3.20 0.05 96 1015.1
20260505140329 6 117 0.0 1.6 0.00 3.20 0.05 96 1014.7
20260505130216 6 142 0.0 0.0 0.00 3.20 0.05 96 1014.6
20260505124932 6 143 0.0 0.0 0.00 3.20 0.05 96 1014.6
20260505124153 6 142 0.0 1.6 0.00 3.20 0.05 96 1014.6
20260505123648 6 142 0.0 1.6 0.00 3.20 0.05 96 1014.6
20260505123141 6 142 0.0 0.0 0.00 3.20 0.05 96 1014.4
20260505122634 6 142 0.0 0.0 0.00 3.20 0.05 96 1014.4
20260505122129 6 142 0.0 0.0 0.00 3.20 0.05 96 1014.4
20260505121847 6 142 0.0 0.0 0.00 3.20 0.05 96 1014.3
20260505121117 6 142 0.0 0.0 0.00 3.20 0.05 96 1014.4
20260505120611 6 142 0.0 0.0 0.00 3.20 0.05 96 1014.3
20260505120105 6 142 0.0 0.0 0.00 3.20 0.05 96 1014.4
20260505115559 6 143 0.0 0.0 0.00 3.20 0.05 96 1014.3
20260505115052 6 142 0.0 0.0 0.00 3.20 0.05 96 1014.4
20260505114547 6 142 0.0 0.0 0.00 3.20 0.05 96 1014.5
20260505114042 6 142 0.0 0.0 0.00 3.20 0.05 96 1014.5
20260505114017 6 142 0.0 0.0 0.00 3.20 0.05 96 1014.4
20260505113030 6 143 0.0 0.0 0.00 3.20 0.05 96 1014.5
20260505113020 7 142 0.0 0.0 0.00 3.20 0.05 96 1014.6
20260505112017 7 143 0.0 0.0 0.00 3.20 0.05 96 1014.5
20260505111510 7 142 0.0 0.0 0.00 3.20 0.05 96 1014.6
20260505111006 7 142 0.0 0.0 0.00 3.20 0.05 96 1014.6
20260505110501 7 143 0.0 0.0 0.00 3.20 0.05 96 1014.6